Weather History for Jordan, MT

Change the Weather History Date:

Saturday, November 24, 2012

  Actual Average Record
Temperature  
Mean Temperature 36 °F 26 °F  
Max Temperature 47 °F 39 °F 65 °F (1949)
Min Temperature 25 °F 13 °F -26 °F (1993)
Degree Days  
Heating Degree Days 29 39  
Month to date heating degree days 739 804  
Since 1 July heating degree days 1556 1777  
Cooling Degree Days 0 0  
Month to date cooling degree days 0 0  
Year to date cooling degree days 728 421  
Moisture  
Dew Point 29 °F    
Average Humidity 79    
Maximum Humidity 96    
Minimum Humidity 62    
Precipitation  
Precipitation 0.00 in 0.01 in 0.15 in (1975)
Month to date precipitation 0.74 0.32  
Year to date precipitation 7.69 12.34  
Snow  
Snow 0.00 in - - ()
Month to date snowfall 0.0  
Since 1 July snowfall 0.0  
Since 1 September snowfall 0.0  
Snow Depth 0.00 in    
Sea Level Pressure  
Sea Level Pressure 30.00 in    
Wind  
Wind Speed 7 mph (WNW)    
Max Wind Speed 21 mph    
Max Gust Speed 25 mph    
T = Trace of Precipitation, MM = Missing Value Source: NWS Daily Summary

Daily Weather History Graph

Daily Weather History Graph

Search for Another Location

Airport:

Trip Planner

Search our weather history database for the weather conditions in past years. The results will help you decide how hot, cold, wet, or windy it might be!

Date:

Astronomy

Nov. 24, 2012 Rise Set
Actual Time 7:25 AM MST 4:23 PM MST
Civil Twilight 6:51 AM MST 4:57 PM MST
Nautical Twilight 6:13 AM MST 5:35 PM MST
Astronomical Twilight 5:36 AM MST 6:12 PM MST
Moon 2:19 PM MST 3:33 AM MST
Length of Visible Light 10h 06m
Length of Day
8h 57m
Waxing Gibbous, 87% of the Moon is Illuminated
Nov 24
Waxing Gibbous
Nov 28
Full
Dec 6
Last Quarter
Dec 13
New
Dec 19
First Quarter

Hourly Weather History & Observations

Time (MST) Temp. Windchill Dew Point Humidity Pressure Visibility Wind Dir Wind Speed Gust Speed Precip Events Conditions
12:48 AM 27.0 °F - 24.1 °F 89% 29.97 in - Calm Calm - N/A   Unknown
1:48 AM 28.0 °F - 23.0 °F 81% 29.93 in - Calm Calm - N/A   Unknown
2:48 AM 33.1 °F 27.7 °F 26.1 °F 75% 29.92 in - WNW 5.8 mph - N/A   Unknown
3:48 AM 37.9 °F 33.5 °F 27.0 °F 65% 29.91 in - WNW 5.8 mph - N/A   Unknown
4:48 AM 34.0 °F 28.8 °F 27.0 °F 75% 29.94 in - WNW 5.8 mph - N/A   Unknown
5:48 AM 37.0 °F 34.5 °F 28.0 °F 70% 29.92 in - WNW 3.5 mph - N/A   Unknown
6:48 AM 36.0 °F 31.1 °F 28.0 °F 73% 29.94 in - West 5.8 mph - N/A   Unknown
7:48 AM 41.0 °F 35.2 °F 30.0 °F 65% 29.94 in - West 9.2 mph - N/A   Unknown
8:48 AM 43.0 °F 36.0 °F 33.1 °F 68% 29.94 in - West 13.8 mph - N/A   Unknown
9:48 AM 45.0 °F 39.7 °F 34.0 °F 65% 29.95 in - West 10.4 mph - N/A   Unknown
10:48 AM 46.9 °F - 35.1 °F 63% 29.97 in - NW 15.0 mph - N/A   Unknown
11:48 AM 45.0 °F 39.3 °F 34.0 °F 65% 29.96 in - NW 11.5 mph - N/A   Unknown
12:48 PM 44.1 °F 37.7 °F 34.0 °F 68% 29.97 in - WNW 12.7 mph - N/A   Unknown
1:48 PM 45.0 °F 38.2 °F 32.0 °F 60% 29.96 in - North 15.0 mph - N/A   Unknown
2:48 PM 37.0 °F 28.9 °F 30.9 °F 79% 30.02 in - North 12.7 mph - N/A   Unknown
3:48 PM 35.1 °F 30.1 °F 30.9 °F 85% 30.04 in - WNW 5.8 mph - N/A   Unknown
4:48 PM 33.1 °F 26.9 °F 32.0 °F 96% 30.06 in - WNW 6.9 mph - N/A   Unknown
5:48 PM 30.0 °F 26.5 °F 28.0 °F 92% 30.07 in - NW 3.5 mph - N/A   Unknown
6:48 PM 32.0 °F 24.2 °F 28.9 °F 88% 30.09 in - NW 9.2 mph - N/A   Unknown
7:48 PM 30.0 °F - 28.0 °F 92% 30.08 in - Calm Calm - N/A   Unknown
8:48 PM 30.0 °F 26.5 °F 28.0 °F 92% 30.08 in - West 3.5 mph - N/A   Unknown
9:48 PM 30.9 °F 25.2 °F 28.9 °F 92% 30.09 in - West 5.8 mph - N/A   Unknown
10:48 PM 28.9 °F 25.2 °F 27.0 °F 92% 30.08 in - West 3.5 mph - N/A   Unknown
11:48 PM 28.9 °F 25.2 °F 27.0 °F 92% 30.06 in - West 3.5 mph - N/A   Unknown